Flag for Nepal Weather past 2 weeks in Kathmandu, Nepal

Now
55 °F

Passing clouds.


Feels Like: 55 °F
Forecast: 46 / 73 °F
Wind: No wind

Location: Kathmandu Airport

Current Time: Oct 24, 2014 at 4:14:07 AM

Latest Report: Oct 24, 2014 at 3:35 AM


Visibility: 4 mi

Pressure: 30.12 "Hg

Humidity: 94%

Dew point: 54 °F

Location of KathmanduLocation

Historic Weather in Kathmandu — Graph

°F

Kathmandu temperature yesterday

Maximum temperature yesterday: 75 °F (at 12:35 PM)
Minimum temperature yesterday: 52 °F (at 5:35 AM)
Average temperature yesterday: 64 °F

Past Weeks' High & Low Weather Summary

 TemperatureHumidityPressure
High81 °F (Oct 9, 12:35 PM)100% (Oct 10, 3:35 AM)30.30 "Hg (Oct 10, 3:35 AM)
Low52 °F (Oct 22, 5:35 AM)36% (Oct 23, 1:35 PM)29.95 "Hg (Oct 10, 3:35 PM)
Average65 °F80%30.11 "Hg
* Reported Oct 9 2:35 AM — Oct 24 2:35 AM, Kathmandu, Weather by CustomWeather, © 2014

Note: Actual official high and low records may vary slightly from our data, if they occured in-between our weather recording intervals... More about our weather records

Advertising

Kathmandu weather history for previous 24 hours

 ConditionsComfort  
Time TempWeatherWind HumidityBarometerVisibility
2:35 AM
Oct 24
55 °FPassing clouds.No wind94%30.12 "Hg4 mi
1:35 AM57 °FPassing clouds.No wind88%30.12 "Hg5 mi
12:35 AM57 °FPassing clouds.3 mph88%30.15 "Hg5 mi
11:35 PM
Oct 23
59 °FPassing clouds.No wind72%30.15 "Hg5 mi
10:35 PM59 °FCool.No wind82%30.15 "Hg5 mi
9:35 PM61 °FPassing clouds.5 mph77%30.15 "Hg5 mi
8:35 PM61 °FPassing clouds.6 mph77%30.15 "Hg5 mi
7:35 PM64 °FPassing clouds.5 mph83%30.12 "Hg5 mi
6:35 PM66 °FPassing clouds.6 mph78%30.09 "Hg5 mi
5:35 PM68 °FPassing clouds.5 mph69%30.09 "HgN/A
4:35 PM72 °FPassing clouds.9 mph53%30.07 "HgN/A
3:35 PM73 °FPassing clouds.7 mph47%30.07 "HgN/A
2:35 PM75 °FPassing clouds.9 mph36%30.07 "HgN/A
1:35 PM75 °FPassing clouds.6 mph36%30.09 "HgN/A
12:35 PM75 °FPassing clouds.9 mph47%30.12 "HgN/A
11:35 AM73 °FPassing clouds.No wind53%30.18 "Hg4 mi
10:35 AM70 °FPassing clouds.3 mph64%30.21 "Hg4 mi
9:35 AM66 °FPassing clouds.No wind73%30.24 "Hg4 mi
8:35 AM63 °FPassing clouds.No wind77%30.24 "Hg4 mi
7:35 AMN/AFog.No windN/A30.21 "Hg3 mi
6:35 AM54 °FPassing clouds.No wind94%30.18 "Hg4 mi
5:35 AM52 °FPassing clouds.No wind100%30.15 "Hg4 mi
4:35 AM54 °FPassing clouds.No wind94%30.15 "Hg4 mi
Weather by CustomWeather, © 2014

See weather overviewHow to use our weather pages